Time,TemperatureF,DewpointF,PressureIn,WindDirection,WindDirectionDegrees,WindSpeedMPH,WindSpeedGustMPH,Humidity,HourlyPrecipIn,Conditions,Clouds,dailyrainin,SoftwareType,DateUTC
2013-01-12 00:02:00,44.9,44.0,29.82,NNW,343,0.0,0.0,98,0.00,,,0.00,weatherlink.com 1.10,2013-01-12 05:02:00,
2013-01-12 00:17:00,44.7,44.0,29.80,NNW,343,0.0,0.0,98,0.00,,,0.00,weatherlink.com 1.10,2013-01-12 05:17:00,
2013-01-12 00:32:00,45.1,45.0,29.79,SSW,200,0.0,1.0,98,0.00,,,0.00,weatherlink.com 1.10,2013-01-12 05:32:00,
2013-01-12 00:47:00,45.8,45.0,29.80,NNE,28,0.0,4.0,98,0.00,,,0.00,weatherlink.com 1.10,2013-01-12 05:47:00,
2013-01-12 01:02:00,46.5,46.0,29.81,WNW,286,0.0,3.0,98,0.00,,,0.00,weatherlink.com 1.10,2013-01-12 06:02:00,
2013-01-12 01:17:00,46.9,46.0,29.80,SW,223,0.0,4.0,98,0.00,,,0.00,weatherlink.com 1.10,2013-01-12 06:17:00,
2013-01-12 01:32:00,46.8,46.0,29.80,NNE,26,0.0,1.0,98,0.00,,,0.00,weatherlink.com 1.10,2013-01-12 06:32:00,
2013-01-12 01:47:00,46.9,46.0,29.81,SW,226,0.0,1.0,98,0.00,,,0.00,weatherlink.com 1.10,2013-01-12 06:47:00,
2013-01-12 02:02:00,47.1,46.0,29.81,NW,308,0.0,2.0,97,0.00,,,0.00,weatherlink.com 1.10,2013-01-12 07:02:00,
2013-01-12 02:17:00,47.3,47.0,29.81,ENE,63,0.0,2.0,97,0.00,,,0.00,weatherlink.com 1.10,2013-01-12 07:17:00,
2013-01-12 02:32:00,47.2,46.0,29.81,NE,42,0.0,1.0,97,0.00,,,0.00,weatherlink.com 1.10,2013-01-12 07:32:00,
2013-01-12 02:47:00,47.0,46.0,29.82,NE,55,0.0,1.0,96,0.00,,,0.00,weatherlink.com 1.10,2013-01-12 07:47:00,
2013-01-12 03:02:00,46.8,46.0,29.82,WNW,294,0.0,1.0,96,0.00,,,0.00,weatherlink.com 1.10,2013-01-12 08:02:00,
2013-01-12 03:17:00,46.5,46.0,29.82,WNW,294,0.0,1.0,96,0.00,,,0.00,weatherlink.com 1.10,2013-01-12 08:17:00,
2013-01-12 03:32:00,46.2,45.0,29.82,WNW,294,0.0,0.0,96,0.00,,,0.00,weatherlink.com 1.10,2013-01-12 08:32:00,
2013-01-12 03:47:00,46.0,45.0,29.81,WNW,294,0.0,0.0,96,0.00,,,0.00,weatherlink.com 1.10,2013-01-12 08:47:00,
2013-01-12 04:02:00,45.6,45.0,29.81,WNW,295,0.0,1.0,96,0.00,,,0.00,weatherlink.com 1.10,2013-01-12 09:02:00,
2013-01-12 04:17:00,45.2,44.0,29.81,WNW,295,0.0,0.0,96,0.00,,,0.00,weatherlink.com 1.10,2013-01-12 09:17:00,
2013-01-12 04:32:00,45.1,44.0,29.81,West,280,0.0,1.0,97,0.00,,,0.00,weatherlink.com 1.10,2013-01-12 09:32:00,
2013-01-12 04:47:00,45.2,44.0,29.80,SSW,201,0.0,1.0,97,0.00,,,0.00,weatherlink.com 1.10,2013-01-12 09:47:00,
2013-01-12 05:02:00,45.0,44.0,29.80,SSW,201,0.0,0.0,97,0.00,,,0.00,weatherlink.com 1.10,2013-01-12 10:02:00,
2013-01-12 05:17:00,44.7,44.0,29.80,WNW,282,0.0,1.0,97,0.00,,,0.00,weatherlink.com 1.10,2013-01-12 10:17:00,
2013-01-12 05:32:00,44.5,44.0,29.80,WSW,240,0.0,0.0,97,0.00,,,0.00,weatherlink.com 1.10,2013-01-12 10:32:00,
2013-01-12 05:47:00,44.6,44.0,29.79,West,271,0.0,0.0,97,0.00,,,0.00,weatherlink.com 1.10,2013-01-12 10:47:00,
2013-01-12 06:02:00,44.5,44.0,29.80,NNE,22,0.0,1.0,97,0.00,,,0.00,weatherlink.com 1.10,2013-01-12 11:02:00,
2013-01-12 06:17:00,44.6,44.0,29.81,SE,131,0.0,1.0,98,0.00,,,0.00,weatherlink.com 1.10,2013-01-12 11:17:00,
2013-01-12 06:32:00,44.9,44.0,29.81,NNW,332,0.0,2.0,98,0.00,,,0.00,weatherlink.com 1.10,2013-01-12 11:32:00,
2013-01-12 06:47:00,45.0,45.0,29.82,NW,325,0.0,1.0,98,0.00,,,0.00,weatherlink.com 1.10,2013-01-12 11:47:00,
2013-01-12 07:02:00,44.9,44.0,29.82,NW,315,0.0,1.0,97,0.00,,,0.00,weatherlink.com 1.10,2013-01-12 12:02:00,
2013-01-12 07:17:00,44.7,44.0,29.82,SE,126,0.0,1.0,97,0.00,,,0.00,weatherlink.com 1.10,2013-01-12 12:17:00,
2013-01-12 07:32:00,45.1,44.0,29.82,WSW,238,0.0,1.0,97,0.00,,,0.00,weatherlink.com 1.10,2013-01-12 12:32:00,
2013-01-12 07:47:00,45.4,45.0,29.83,South,187,0.0,0.0,98,0.00,,,0.00,weatherlink.com 1.10,2013-01-12 12:47:00,
2013-01-12 08:02:00,45.7,45.0,29.83,NNW,343,0.0,1.0,98,0.00,,,0.00,weatherlink.com 1.10,2013-01-12 13:02:00,
2013-01-12 08:17:00,45.8,45.0,29.84,SW,236,0.0,0.0,97,0.00,,,0.00,weatherlink.com 1.10,2013-01-12 13:17:00,
2013-01-12 08:32:00,46.2,45.0,29.85,West,277,0.0,1.0,97,0.00,,,0.00,weatherlink.com 1.10,2013-01-12 13:32:00,
2013-01-12 08:47:00,46.6,46.0,29.86,NNW,336,0.0,2.0,97,0.00,,,0.00,weatherlink.com 1.10,2013-01-12 13:47:00,
2013-01-12 09:02:00,47.2,46.0,29.86,SSW,205,1.0,2.0,96,0.00,,,0.00,weatherlink.com 1.10,2013-01-12 14:02:00,
2013-01-12 09:17:00,47.8,47.0,29.86,NW,312,0.0,2.0,96,0.00,,,0.00,weatherlink.com 1.10,2013-01-12 14:17:00,
2013-01-12 09:32:00,48.5,47.0,29.86,NNW,334,0.0,2.0,95,0.00,,,0.00,weatherlink.com 1.10,2013-01-12 14:32:00,
2013-01-12 09:47:00,49.2,48.0,29.86,NW,308,0.0,5.0,94,0.00,,,0.00,weatherlink.com 1.10,2013-01-12 14:47:00,
2013-01-12 10:02:00,49.6,47.0,29.87,WSW,246,0.0,2.0,92,0.00,,,0.00,weatherlink.com 1.10,2013-01-12 15:02:00,
2013-01-12 10:18:00,50.6,48.0,29.88,NW,304,0.0,5.0,91,0.00,,,0.00,weatherlink.com 1.10,2013-01-12 15:18:00,
2013-01-12 10:33:00,52.7,49.0,29.89,NNW,333,0.0,4.0,87,0.00,,,0.00,weatherlink.com 1.10,2013-01-12 15:33:00,
2013-01-12 10:48:00,53.2,49.0,29.88,NNW,328,3.0,8.0,86,0.00,,,0.00,weatherlink.com 1.10,2013-01-12 15:48:00,
2013-01-12 11:03:00,54.0,49.0,29.89,SW,218,0.0,6.0,84,0.00,,,0.00,weatherlink.com 1.10,2013-01-12 16:03:00,
2013-01-12 11:18:00,54.5,49.0,29.89,West,281,0.0,7.0,83,0.00,,,0.00,weatherlink.com 1.10,2013-01-12 16:18:00,
2013-01-12 11:33:00,55.1,50.0,29.89,WNW,294,0.0,5.0,82,0.00,,,0.00,weatherlink.com 1.10,2013-01-12 16:33:00,
2013-01-12 11:48:00,56.0,49.0,29.88,NW,315,3.0,10.0,78,0.00,,,0.00,weatherlink.com 1.10,2013-01-12 16:48:00,
2013-01-12 12:03:00,56.0,49.0,29.89,NW,325,5.0,8.0,76,0.00,,,0.00,weatherlink.com 1.10,2013-01-12 17:03:00,
2013-01-12 12:18:00,55.7,49.0,29.89,WNW,297,0.0,8.0,78,0.00,,,0.00,weatherlink.com 1.10,2013-01-12 17:18:00,
2013-01-12 12:33:00,55.3,48.0,29.89,North,355,2.0,14.0,76,0.00,,,0.00,weatherlink.com 1.10,2013-01-12 17:33:00,
2013-01-12 12:48:00,54.7,47.0,29.90,SW,221,1.0,10.0,76,0.00,,,0.00,weatherlink.com 1.10,2013-01-12 17:48:00,
2013-01-12 13:03:00,54.6,47.0,29.90,WNW,292,5.0,10.0,76,0.00,,,0.00,weatherlink.com 1.10,2013-01-12 18:03:00,
2013-01-12 13:18:00,54.2,46.0,29.90,West,262,0.0,8.0,74,0.00,,,0.00,weatherlink.com 1.10,2013-01-12 18:18:00,
2013-01-12 13:33:00,54.1,46.0,29.91,South,187,3.0,7.0,73,0.00,,,0.00,weatherlink.com 1.10,2013-01-12 18:33:00,
2013-01-12 13:48:00,53.6,45.0,29.91,SW,225,0.0,6.0,72,0.00,,,0.00,weatherlink.com 1.10,2013-01-12 18:48:00,
2013-01-12 14:03:00,53.3,44.0,29.91,West,277,7.0,7.0,71,0.00,,,0.00,weatherlink.com 1.10,2013-01-12 19:03:00,
2013-01-12 14:18:00,53.0,43.0,29.91,WNW,292,3.0,8.0,70,0.00,,,0.00,weatherlink.com 1.10,2013-01-12 19:18:00,
2013-01-12 14:33:00,53.1,44.0,29.93,SW,219,0.0,5.0,72,0.00,,,0.00,weatherlink.com 1.10,2013-01-12 19:33:00,
2013-01-12 14:48:00,52.3,43.0,29.93,East,99,0.0,8.0,71,0.00,,,0.00,weatherlink.com 1.10,2013-01-12 19:48:00,
2013-01-12 15:03:00,52.1,44.0,29.93,NNW,331,1.0,6.0,75,0.00,,,0.00,weatherlink.com 1.10,2013-01-12 20:03:00,
2013-01-12 15:18:00,51.9,43.0,29.94,West,271,0.0,5.0,73,0.00,,,0.00,weatherlink.com 1.10,2013-01-12 20:18:00,
2013-01-12 15:33:00,51.7,43.0,29.94,West,279,0.0,6.0,71,0.00,,,0.00,weatherlink.com 1.10,2013-01-12 20:33:00,
2013-01-12 15:48:00,51.8,41.0,29.95,West,273,1.0,8.0,67,0.00,,,0.00,weatherlink.com 1.10,2013-01-12 20:48:00,
2013-01-12 16:03:00,50.6,38.0,29.94,NNW,333,2.0,9.0,62,0.00,,,0.00,weatherlink.com 1.10,2013-01-12 21:03:00,
2013-01-12 16:18:00,49.7,35.0,29.95,WNW,284,3.0,6.0,57,0.00,,,0.00,weatherlink.com 1.10,2013-01-12 21:18:00,
2013-01-12 16:33:00,48.9,34.0,29.95,South,188,0.0,4.0,57,0.00,,,0.00,weatherlink.com 1.10,2013-01-12 21:33:00,
2013-01-12 16:48:00,48.2,33.0,29.96,NW,324,1.0,7.0,56,0.00,,,0.00,weatherlink.com 1.10,2013-01-12 21:48:00,
2013-01-12 17:03:00,47.6,33.0,29.97,WSW,240,2.0,6.0,57,0.00,,,0.00,weatherlink.com 1.10,2013-01-12 22:03:00,
2013-01-12 17:18:00,47.2,33.0,29.98,WNW,291,0.0,7.0,58,0.00,,,0.00,weatherlink.com 1.10,2013-01-12 22:18:00,
2013-01-12 17:33:00,46.7,34.0,29.97,WNW,302,0.0,8.0,61,0.00,,,0.00,weatherlink.com 1.10,2013-01-12 22:33:00,
2013-01-12 17:48:00,45.9,35.0,29.98,WNW,293,0.0,2.0,65,0.00,,,0.00,weatherlink.com 1.10,2013-01-12 22:48:00,
2013-01-12 18:03:00,46.0,35.0,29.98,WNW,289,0.0,1.0,65,0.00,,,0.00,weatherlink.com 1.10,2013-01-12 23:03:00,
2013-01-12 18:18:00,45.7,34.0,29.96,WNW,299,0.0,5.0,64,0.00,,,0.00,weatherlink.com 1.10,2013-01-12 23:18:00,
2013-01-12 18:33:00,45.3,33.0,29.96,NNW,338,0.0,4.0,63,0.00,,,0.00,weatherlink.com 1.10,2013-01-12 23:33:00,
2013-01-12 18:48:00,44.7,33.0,29.96,WSW,255,0.0,5.0,63,0.00,,,0.00,weatherlink.com 1.10,2013-01-12 23:48:00,
2013-01-12 19:03:00,44.3,33.0,29.97,SW,217,0.0,2.0,65,0.00,,,0.00,weatherlink.com 1.10,2013-01-13 00:03:00,
2013-01-12 19:18:00,43.8,33.0,29.98,West,265,0.0,3.0,66,0.00,,,0.00,weatherlink.com 1.10,2013-01-13 00:18:00,
2013-01-12 19:33:00,43.2,33.0,29.98,WSW,240,3.0,3.0,68,0.00,,,0.00,weatherlink.com 1.10,2013-01-13 00:33:00,
2013-01-12 19:48:00,42.7,33.0,29.96,West,275,1.0,3.0,68,0.00,,,0.00,weatherlink.com 1.10,2013-01-13 00:48:00,
2013-01-12 20:03:00,42.4,33.0,29.96,SW,230,0.0,2.0,69,0.00,,,0.00,weatherlink.com 1.10,2013-01-13 01:03:00,
2013-01-12 20:18:00,42.0,33.0,29.96,WNW,284,0.0,1.0,71,0.00,,,0.00,weatherlink.com 1.10,2013-01-13 01:18:00,
2013-01-12 20:33:00,41.6,34.0,29.95,WSW,247,0.0,0.0,73,0.00,,,0.00,weatherlink.com 1.10,2013-01-13 01:33:00,
2013-01-12 20:49:00,41.2,35.0,29.95,WSW,247,0.0,0.0,77,0.00,,,0.00,weatherlink.com 1.10,2013-01-13 01:49:00,
2013-01-12 21:04:00,40.8,35.0,29.95,WSW,247,0.0,0.0,80,0.00,,,0.00,weatherlink.com 1.10,2013-01-13 02:04:00,
2013-01-12 21:19:00,40.4,35.0,29.93,WSW,247,0.0,0.0,82,0.00,,,0.00,weatherlink.com 1.10,2013-01-13 02:19:00,
2013-01-12 21:34:00,40.1,35.0,29.93,WSW,247,0.0,0.0,81,0.00,,,0.00,weatherlink.com 1.10,2013-01-13 02:34:00,
2013-01-12 21:49:00,39.9,36.0,29.93,WSW,247,0.0,0.0,84,0.00,,,0.00,weatherlink.com 1.10,2013-01-13 02:49:00,
2013-01-12 22:04:00,39.8,35.0,29.94,WSW,253,0.0,1.0,83,0.00,,,0.00,weatherlink.com 1.10,2013-01-13 03:04:00,
2013-01-12 22:19:00,39.9,36.0,29.95,WSW,253,0.0,0.0,84,0.00,,,0.00,weatherlink.com 1.10,2013-01-13 03:19:00,
2013-01-12 22:34:00,40.0,36.0,29.96,WSW,252,0.0,0.0,84,0.00,,,0.00,weatherlink.com 1.10,2013-01-13 03:34:00,
2013-01-12 22:49:00,40.1,37.0,29.95,WSW,252,0.0,0.0,88,0.00,,,0.00,weatherlink.com 1.10,2013-01-13 03:49:00,
2013-01-12 23:04:00,40.0,37.0,29.95,WSW,241,0.0,2.0,88,0.01,,,0.01,weatherlink.com 1.10,2013-01-13 04:04:00,
2013-01-12 23:19:00,39.7,37.0,29.95,SW,219,0.0,1.0,89,0.01,,,0.01,weatherlink.com 1.10,2013-01-13 04:19:00,
2013-01-12 23:34:00,39.2,36.0,29.95,South,178,0.0,2.0,89,0.01,,,0.01,weatherlink.com 1.10,2013-01-13 04:34:00,
2013-01-12 23:49:00,38.9,36.0,29.94,South,182,0.0,0.0,90,0.01,,,0.01,weatherlink.com 1.10,2013-01-13 04:49:00,